STARLINK-1764 (46343 NORAD) Tracking and Keplerian Element Data

This shows tracking and keplerian element data for the satellite.

Feedback or suggestion? Click here.




ElementValue
Catalog46343
NameSTARLINK-1764
Epoch Orbit181
Epoch Day335.91670139
Epoch Year2020
RAAN357.7997
Inclination53.0009
Eccentricity0.000131
Argument of Perigee69.2181
Mean Anonmoly356.0718
Mean Motion15.25529118
Decay Rate-0.01063284
L11 46343U 20062U 20335.91670139 -.01063284 00000-0 -45170-1 0 9993
L22 46343 53.0009 357.7997 0001310 69.2181 356.0718 15.25529118 1817

Live tracking and technical data element details for STARLINK-1764 (NORAD 46343). STARLINK-1764 can be tracked NOW for your location showing map with azimuth and elevation plus other details from your city location.

Track the satellite on the map from your city or location and see movement details for azimuth, elevation, latitude, longitude, range, height, and movement on the map or in text.







IsCatalogInMostPopularTable: catalog: 46343, numindb: 23
Update: records affected: 1



GetName: 46343 STARLINK-1764

Hit Count: updated at: Tue, 01 Dec 2020 20:18:22 GMT